Location: ????????
(55.8351°N, 38.7040°E)
Time: 12:26:07
(UTC+00:00)

NOSS 3-1 (C) - Pass Details

Date: 14 April 2024
Orbit: 652 x 1553 km, 63.4° (Epoch: 15 May)

Event Time Altitude Azimuth Distance (km) Brightness Sun altitude
Rises 23:59:40 0° 303° (WNW) 3,579 6.4 -17.2°
Reaches altitude 10° 00:02:00 10° 306° (NW) 2,748 5.8 -17.0°
Maximum altitude 00:08:34 70° 31° (NNE) 1,227 4.2 -16.4°
Drops below altitude 10° 00:16:48 10° 115° (ESE) 3,406 6.6 -15.6°
Sets 00:19:59 0° 118° (ESE) 4,487 7.2 -15.3°
